{"data":{"norad_id":59102,"epoch":"2026-09-22T14:58:17.182272Z","epoch_age_seconds":71662,"freshness":"FRESH","line1":"1 59102U 24043E   26265.62380998  .00002073  00000+0  14357-3 0  9990","line2":"2 59102  97.8436  44.2766 0015915  43.1886 317.0586 15.06728987139754","mean_motion":15.06728987,"eccentricity":0.0015915,"inclination_deg":97.8436,"raan_deg":44.2766,"arg_perigee_deg":43.1886,"mean_anomaly_deg":317.0586,"bstar":0.00014357,"rev_number":13975,"period_min":95.5712681195,"perigee_km":535.18335581862,"apogee_km":557.22353145071,"semimajor_km":6924.3404436347,"source":"CELESTRAK","updated_at":"2026-09-23T09:00:19.173498Z"}}